Temperature
9 9 8 8 8 8 8 7 7 7 6 6 6 5 5 5 5 5 5 5 5 4 4 4 3 3 2 1 1 0 0 -0 -0 -0 -0 -0 -0 -0 -0 0 1 1 2
9 8 8 8 8 7 7 7 7 6 6 6 6 5 5 5 5 5 4 4 4 4 3 3 3 2 1 1 0 -0 -0 -1 -1 -1 -1 -1 -1 -1 -1 -1 -0 -0 1
9 8 8 8 8 7 7 7 6 6 6 6 5 5 5 5 4 4 4 4 4 3 3 3 2 2 1 0 -0 -1 -1 -1 -1 -1 -1 -1 -1 -1 -1 -1 -1 -1 -1
9 8 8 8 7 7 7 6 6 6 6 5 5 5 5 4 4 4 4 3 3 3 3 2 1 1 -0 -1 -1 -1 -1 -2 -2 -2 -2 -2 -2 -2 -2 -2 -2 -1 -1
9 8 8 8 7 7 7 6 6 6 5 5 5 5 4 4 4 4 3 3 3 2 2 2 1 1 -0 -1 -1 -2 -2 -2 -2 -2 -2 -2 -2 -2 -2 -2 -2 -2 -2
9 8 8 8 7 7 7 6 6 6 5 5 4 4 4 4 4 3 3 3 3 2 2 1 1 1 0 -1 -2 -2 -2 -3 -3 -3 -3 -3 -3 -3 -3 -2 -2 -2 -2
9 9 8 8 8 7 7 7 6 5 5 4 3 3 3 3 3 3 3 3 3 2 2 1 1 0 -0 -1 -1 -2 -3 -3 -3 -3 -3 -3 -3 -3 -3 -3 -3 -2 -2
9 9 9 8 8 7 7 6 6 6 5 4 4 3 2 2 3 3 3 2 2 2 1 1 0 -0 -1 -1 -2 -2 -3 -4 -4 -4 -4 -4 -4 -3 -3 -3 -3 -3 -2
9 9 9 9 8 8 7 7 6 6 5 4 4 3 2 2 2 1 1 1 1 1 1 0 -0 -1 -2 -2 -3 -3 -3 -4 -4 -4 -4 -4 -4 -4 -4 -3 -3 -3 -3
9 9 8 8 8 8 7 7 6 6 5 4 3 3 2 2 1 1 -0 -0 -0 -0 -0 -0 -1 -1 -2 -3 -3 -3 -4 -5 -5 -5 -5 -5 -4 -4 -4 -4 -3 -3 -3
8 8 8 7 7 7 7 6 6 5 5 4 4 3 2 1 0 -0 -1 -0 -1 -1 -1 -1 -1 -2 -2 -3 -3 -4 -4 -5 -5 -5 -5 -5 -5 -5 -4 -4 -4 -4 -4
7 7 7 7 7 6 6 5 5 4 4 3 3 3 2 1 1 1 0 0 -0 -0 -1 -1 -2 -2 -2 -3 -3 -4 -5 -5 -5 -5 -5 -5 -5 -5 -5 -5 -5 -5 -4
7 7 6 6 6 6 5 4 3 3 2 2 2 2 2 2 2 1 0 -0 -1 -2 -2 -2 -1 -2 -2 -3 -4 -4 -5 -5 -5 -5 -5 -6 -6 -6 -6 -6 -5 -5 -5
6 6 6 6 5 5 4 3 2 2 1 1 1 1 1 1 1 0 0 -1 -2 -3 -4 -2 -1 -2 -2 -3 -4 -5 -5 -5 -5 -6 -6 -6 -6 -6 -6 -6 -6 -6 -5
5 5 5 5 5 4 4 3 2 2 1 0 -0 -0 -0 -0 -0 -0 -1 -1 -2 -4 -4 -3 -2 -2 -3 -4 -4 -5 -5 -6 -6 -6 -6 -6 -6 -6 -6 -6 -6 -6 -6
6 5 5 4 4 4 3 2 2 1 -0 -1 -1 -2 -2 -1 -1 -1 -1 -2 -2 -3 -4 -3 -2 -2 -3 -4 -4 -5 -6 -6 -6 -6 -6 -6 -6 -6 -6 -6 -6 -6 -6
6 6 5 4 4 3 3 2 2 1 -1 -1 -2 -2 -2 -2 -3 -2 -2 -2 -3 -3 -4 -4 -3 -3 -3 -4 -4 -5 -5 -6 -6 -6 -7 -7 -7 -7 -7 -7 -7 -7 -6
7 6 5 5 4 3 3 2 1 1 -0 -1 -2 -3 -3 -3 -3 -3 -3 -3 -3 -3 -4 -5 -4 -4 -4 -4 -5 -5 -6 -6 -7 -7 -7 -7 -7 -7 -7 -7 -7 -7 -7
7 6 6 5 5 4 3 2 1 1 -0 -1 -2 -3 -3 -4 -4 -4 -4 -4 -3 -4 -4 -5 -5 -5 -4 -5 -6 -6 -6 -7 -7 -7 -7 -7 -7 -7 -7 -7 -7 -7 -7
6 6 6 5 5 4 3 2 1 0 -1 -2 -3 -3 -4 -4 -4 -4 -4 -4 -4 -4 -5 -6 -6 -6 -6 -5 -7 -7 -7 -7 -7 -7 -7 -8 -8 -8 -8 -8 -8 -8 -8
6 5 5 5 4 3 3 2 1 -0 -2 -2 -3 -4 -5 -5 -5 -5 -5 -5 -4 -5 -5 -6 -6 -7 -6 -6 -7 -7 -7 -7 -7 -7 -8 -8 -8 -8 -8 -9 -9 -9 -9
5 4 4 4 4 3 3 1 -0 -1 -2 -3 -4 -4 -5 -6 -6 -6 -6 -5 -5 -5 -5 -6 -6 -7 -6 -6 -7 -7 -8 -8 -8 -7 -8 -8 -9 -9 -9 -9 -9 -9 -9
4 4 4 3 3 3 2 0 -1 -3 -3 -3 -4 -5 -6 -6 -7 -6 -6 -6 -6 -5 -5 -6 -6 -6 -6 -6 -7 -7 -8 -8 -8 -8 -9 -9 -9 -9 -9 -9 -9 -9 -9
3 3 3 2 2 2 1 -0 -2 -3 -4 -4 -5 -5 -6 -7 -7 -6 -6 -6 -5 -5 -5 -6 -6 -6 -6 -7 -7 -7 -8 -8 -8 -8 -9 -10 -9 -10 -10 -10 -10 -10 -9
2 1 1 1 1 1 0 -1 -2 -4 -4 -4 -5 -6 -6 -7 -7 -7 -7 -6 -6 -5 -5 -6 -6 -6 -7 -7 -7 -7 -8 -8 -9 -9 -9 -10 -10 -10 -10 -10 -10 -10 -10
0 0 0 0 -0 -0 -1 -2 -3 -4 -4 -5 -5 -6 -6 -7 -7 -7 -7 -6 -6 -5 -5 -6 -6 -7 -7 -7 -8 -8 -8 -9 -9 -10 -10 -10 -11 -11 -11 -11 -10 -10 -10
Wind_Speed
12 14 14 16 17 16 15 12 12 10 9 8 7 6 5 5 5 6 6 9 10 11 12 13 14 14 15 16 17 18 18 19 20 20 20 21 21 22 22 23 24 24 25
16 14 13 14 15 16 15 15 13 9 8 8 7 7 7 8 8 8 8 10 11 12 13 13 14 14 15 16 17 18 19 20 20 21 21 22 22 22 22 23 24 24 25
19 17 12 12 15 17 16 13 11 9 6 6 6 9 9 10 9 9 10 11 11 13 14 14 14 15 16 17 18 19 20 20 21 22 22 23 23 23 24 24 24 25 25
22 18 12 11 17 17 15 9 6 5 5 5 5 6 8 9 10 12 13 13 13 13 14 15 16 16 17 18 19 20 21 21 22 22 23 23 24 24 25 25 25 25 26
24 19 14 14 18 14 12 9 6 6 6 6 6 6 5 6 9 12 13 15 16 16 15 16 17 18 18 19 20 21 22 22 23 23 24 24 25 25 26 26 26 26 27
25 21 16 16 17 9 8 8 8 7 6 5 6 6 6 6 8 10 12 14 15 17 17 17 17 17 19 20 21 22 23 23 24 25 25 25 26 26 27 27 27 27 28
25 22 14 14 14 11 11 11 8 8 8 5 3 4 6 9 10 9 11 11 12 16 17 18 18 17 18 20 21 22 24 24 25 26 26 26 27 27 28 28 28 29 29
24 24 17 11 12 11 13 13 10 8 7 8 5 3 4 5 9 12 8 8 9 13 15 17 18 19 19 20 21 24 25 26 26 27 27 28 28 29 29 29 30 30 30
24 22 21 15 12 13 14 16 14 14 11 10 8 6 5 8 3 4 9 9 9 7 9 14 18 20 21 21 22 24 26 27 27 28 28 29 29 30 30 30 31 31 31
20 23 21 20 14 13 15 16 16 13 11 9 8 8 6 5 5 3 4 7 10 10 9 12 15 19 21 21 21 24 27 28 28 29 29 29 30 31 31 32 32 32 32
17 20 21 18 16 14 15 15 15 15 14 12 8 6 8 6 5 6 5 5 5 7 8 8 12 15 19 20 21 24 27 28 29 29 30 30 31 32 33 33 33 34 34
13 16 17 16 16 15 16 15 15 16 16 15 12 9 7 6 8 9 11 8 6 6 7 7 8 12 17 19 22 26 27 28 29 29 30 31 32 33 33 34 35 35 35
12 15 17 17 16 15 13 13 15 15 16 16 16 14 12 10 5 8 9 8 7 6 6 6 8 13 17 19 21 25 26 27 28 30 31 32 33 34 34 35 36 36 37
12 12 17 18 17 15 16 14 15 15 14 16 18 16 13 12 10 9 8 7 5 6 8 8 6 10 15 17 19 23 22 27 29 31 32 33 34 35 36 36 37 37 38
10 12 15 17 17 17 17 16 16 17 15 16 16 17 14 11 10 9 8 8 8 7 8 8 7 7 11 12 17 18 19 26 30 32 33 34 35 36 37 37 38 38 39
11 11 12 14 16 17 17 17 16 15 16 16 13 15 16 13 11 10 10 9 10 10 7 6 7 5 6 13 20 20 20 27 31 33 34 35 35 36 37 38 38 39 40
12 13 12 13 15 16 17 18 18 16 18 17 16 17 18 15 13 12 11 10 12 11 14 9 7 8 9 11 13 17 21 21 24 31 34 35 35 36 37 38 39 40 40
12 13 12 13 14 15 16 18 20 19 19 20 19 18 18 16 17 14 13 13 13 13 13 14 10 9 11 10 11 13 15 20 20 28 32 34 35 36 37 38 39 39 40
12 12 13 14 15 15 15 18 19 19 20 20 19 19 18 17 19 16 15 15 13 13 12 12 12 10 10 10 11 13 15 12 18 24 28 30 32 34 36 37 38 39 40
12 12 13 14 14 13 14 15 16 17 17 17 18 18 18 19 19 18 17 17 15 13 12 12 12 11 12 10 10 12 12 9 12 15 21 26 30 33 35 37 37 38 39
12 11 12 13 12 12 13 14 14 16 16 16 16 18 19 23 27 22 18 15 15 14 13 12 13 12 12 10 10 9 11 11 11 11 12 14 14 14 17 28 33 35 37
11 11 12 13 13 13 22 27 20 15 15 16 17 16 18 24 29 34 33 29 23 17 15 14 13 14 14 12 10 9 10 13 15 6 9 14 11 15 13 12 28 35 36
11 12 13 13 14 17 26 28 29 17 15 16 16 15 16 19 25 19 26 32 30 32 27 17 16 17 15 11 9 11 13 15 17 10 11 18 12 15 14 18 32 34 35
11 12 12 13 14 17 25 27 27 19 15 16 16 16 16 16 18 19 17 17 17 18 20 16 14 14 12 10 10 13 16 16 15 11 9 16 15 15 16 13 27 32 33
11 11 10 11 13 15 22 25 25 11 12 15 16 17 18 17 25 29 20 18 18 17 23 27 25 23 26 26 21 13 12 13 17 12 6 10 14 16 16 15 18 28 30
11 10 10 10 12 12 19 23 23 10 12 12 13 16 25 24 27 29 20 17 18 16 12 12 16 19 16 18 23 13 10 12 15 13 5 6 11 12 13 10 10 11 15
Wind_Direction
185 185 193 193 196 199 201 210 220 218 214 224 229 235 246 263 270 278 284 295 301 306 309 313 316 317 319 320 321 322 322 323 323 323 323 323 323 323 323 322 321 321 321
190 188 192 196 199 202 201 206 215 214 214 217 225 236 243 253 258 262 267 275 286 292 295 298 302 305 308 310 313 314 315 316 317 317 317 317 317 317 317 317 316 315 315
193 192 192 194 199 202 204 207 217 214 218 218 221 233 237 241 247 255 261 261 263 273 282 285 289 293 297 301 304 306 307 309 310 311 312 312 313 313 313 312 311 310 310
198 194 194 195 196 199 199 196 204 199 214 215 222 230 229 229 236 246 251 251 249 251 261 273 280 284 288 292 295 297 300 301 304 305 306 307 308 308 308 308 307 306 305
201 197 197 198 195 194 194 200 198 199 207 213 218 224 224 227 234 243 241 241 241 240 243 256 269 276 281 285 288 291 294 296 298 300 301 302 303 304 304 304 303 303 302
201 201 200 198 194 192 194 197 201 201 205 204 222 233 228 226 232 234 236 238 237 236 238 241 250 262 273 280 283 286 289 291 293 295 297 298 299 299 300 300 300 299 298
200 202 204 201 198 199 199 196 194 201 205 188 203 261 256 236 233 231 226 225 229 232 234 234 238 244 254 268 276 281 285 288 290 292 293 294 296 296 296 296 296 296 295
202 205 205 203 201 201 201 200 196 196 200 187 176 191 264 267 234 228 215 214 219 223 226 233 235 237 241 247 258 270 277 282 286 288 289 291 292 293 293 293 293 293 292
205 206 207 206 205 205 208 205 199 196 203 198 187 172 193 227 253 230 216 217 214 212 219 227 233 236 240 243 247 259 270 276 279 283 286 288 289 290 291 291 291 291 291
210 210 209 209 210 210 212 209 206 203 195 200 203 209 201 173 184 252 261 225 218 219 220 230 236 236 238 240 245 257 266 271 275 278 282 285 287 289 290 290 290 290 290
215 214 212 212 215 215 214 211 209 206 206 204 197 189 213 220 198 198 241 242 233 225 223 225 232 235 238 240 245 254 264 268 272 276 280 283 286 287 289 290 290 290 289
219 217 215 215 217 218 217 214 213 211 211 211 209 199 184 187 203 205 221 225 231 232 226 226 229 234 240 243 248 259 265 269 272 276 279 282 284 285 286 287 288 287 287
224 219 217 219 220 220 217 213 216 217 214 213 214 215 211 209 184 190 206 217 225 230 231 235 232 237 244 244 246 259 267 271 275 278 280 281 282 283 284 284 285 284 284
230 218 215 219 220 218 219 217 220 221 219 219 220 218 219 217 209 202 200 198 223 234 228 234 233 230 239 241 248 263 269 273 277 278 279 280 281 281 282 282 283 282 282
235 220 215 216 218 217 218 217 223 222 221 221 222 220 222 220 213 211 207 202 206 227 233 221 230 229 231 243 261 268 265 270 275 277 279 280 281 281 281 281 281 281 280
237 230 220 216 216 217 217 219 224 221 221 223 220 219 221 220 217 214 214 212 213 222 236 219 224 229 253 266 268 270 268 274 277 279 281 281 281 281 281 281 281 280 279
235 234 229 223 220 220 218 220 224 219 222 223 221 221 222 216 217 217 216 216 220 223 242 244 241 251 251 256 268 270 270 270 270 275 277 279 280 281 281 281 281 280 279
236 235 232 230 228 223 219 220 223 222 222 223 221 220 221 218 218 217 217 219 223 224 233 247 251 253 252 254 259 264 271 271 267 273 277 279 281 282 282 282 281 280 279
242 238 233 234 232 227 222 222 223 223 223 223 220 220 219 216 219 218 218 221 224 229 231 242 251 254 258 258 262 267 266 266 270 276 279 281 282 283 283 283 283 282 280
245 243 240 238 235 230 227 225 223 224 224 223 220 220 218 218 219 218 220 222 224 227 231 239 249 254 258 257 258 265 270 264 270 276 279 280 282 284 284 284 284 283 282
253 247 244 243 238 234 232 226 224 225 224 224 223 222 221 222 223 222 223 222 222 225 229 237 245 253 256 257 255 257 270 277 272 269 275 275 278 277 278 280 281 282 280
258 252 247 245 243 242 246 243 236 229 227 226 226 224 224 230 232 231 230 228 223 223 226 232 240 246 252 251 254 261 272 281 284 252 263 278 276 279 278 273 279 281 280
261 256 253 248 247 247 251 250 247 235 226 227 227 225 227 228 229 230 236 237 235 232 229 226 236 244 251 252 257 268 269 271 275 275 283 285 282 281 281 281 284 284 283
262 258 255 250 249 251 254 254 251 244 230 226 224 222 224 225 224 224 225 231 237 242 243 241 242 249 253 257 255 262 269 273 275 271 264 282 288 287 287 283 285 284 285
267 260 256 250 250 253 256 257 253 242 235 229 225 222 222 223 228 228 224 226 233 239 246 246 247 251 256 262 264 267 271 280 284 282 254 271 285 291 289 284 281 283 286
274 269 263 255 252 252 256 257 254 240 236 233 228 223 225 224 226 230 225 222 229 233 229 239 248 257 261 266 271 266 264 273 280 286 253 258 283 295 293 276 268 278 285
Height
1546 1547 1548 1548 1549 1549 1550 1550 1550 1550 1550 1550 1550 1549 1549 1548 1547 1547 1546 1545 1544 1542 1541 1540 1539 1538 1536 1535 1534 1533 1532 1531 1529 1528 1527 1525 1524 1522 1521 1520 1519 1518 1517
1542 1542 1543 1544 1544 1545 1546 1546 1546 1546 1546 1546 1546 1546 1545 1545 1544 1543 1542 1541 1540 1539 1538 1536 1535 1534 1533 1532 1530 1529 1528 1527 1525 1524 1522 1521 1520 1518 1517 1516 1515 1514 1513
1536 1537 1538 1539 1540 1541 1541 1542 1542 1542 1542 1542 1541 1541 1541 1540 1540 1539 1538 1537 1536 1535 1534 1532 1531 1530 1528 1527 1526 1525 1524 1522 1521 1519 1518 1516 1515 1513 1512 1511 1510 1509 1508
1530 1531 1532 1533 1535 1536 1536 1536 1537 1537 1537 1537 1536 1536 1535 1535 1534 1534 1533 1531 1530 1530 1529 1527 1526 1525 1524 1522 1521 1520 1519 1517 1516 1514 1513 1511 1510 1508 1507 1505 1504 1503 1503
1524 1525 1526 1528 1529 1529 1530 1530 1531 1531 1531 1531 1531 1530 1529 1529 1528 1528 1527 1526 1525 1524 1523 1522 1521 1519 1518 1517 1516 1515 1514 1512 1511 1509 1507 1506 1504 1503 1501 1500 1499 1497 1497
1516 1518 1519 1521 1522 1522 1523 1523 1524 1525 1525 1525 1524 1523 1522 1522 1522 1521 1521 1520 1519 1518 1517 1516 1515 1514 1512 1511 1510 1509 1508 1507 1505 1504 1502 1500 1498 1497 1495 1494 1493 1491 1490
1508 1510 1511 1513 1514 1514 1515 1516 1517 1517 1518 1519 1518 1516 1515 1515 1514 1514 1513 1513 1512 1512 1511 1509 1508 1507 1506 1505 1504 1503 1501 1500 1499 1497 1496 1494 1492 1491 1489 1488 1486 1485 1484
1499 1501 1502 1503 1505 1506 1507 1507 1508 1509 1510 1511 1511 1510 1508 1506 1503 1505 1505 1505 1505 1505 1504 1503 1502 1500 1499 1497 1497 1495 1494 1493 1492 1491 1489 1487 1486 1484 1482 1481 1479 1478 1477
1490 1491 1493 1494 1496 1496 1497 1497 1499 1500 1500 1501 1501 1502 1501 1497 1497 1495 1495 1496 1497 1497 1497 1496 1495 1493 1492 1490 1489 1488 1487 1485 1484 1483 1482 1480 1479 1477 1475 1474 1472 1470 1469
1482 1482 1483 1484 1485 1486 1486 1487 1489 1490 1491 1490 1491 1490 1491 1492 1492 1489 1487 1487 1488 1488 1489 1489 1487 1486 1485 1484 1482 1481 1480 1478 1477 1476 1475 1473 1471 1469 1467 1466 1464 1462 1460
1473 1473 1474 1474 1475 1475 1476 1477 1478 1479 1479 1480 1480 1480 1481 1481 1481 1481 1479 1479 1479 1479 1480 1481 1480 1479 1478 1477 1475 1474 1472 1471 1469 1468 1467 1465 1462 1460 1458 1457 1455 1453 1451
1464 1464 1464 1464 1464 1465 1465 1466 1467 1468 1468 1469 1470 1469 1469 1469 1468 1469 1468 1468 1469 1470 1472 1472 1471 1471 1470 1469 1467 1466 1465 1463 1462 1460 1458 1456 1454 1451 1449 1447 1445 1443 1441
1456 1454 1455 1455 1454 1454 1455 1456 1457 1457 1457 1457 1457 1457 1457 1457 1459 1460 1460 1459 1460 1461 1462 1463 1463 1463 1462 1460 1459 1458 1457 1456 1454 1452 1449 1447 1444 1442 1440 1437 1435 1433 1431
1449 1448 1447 1446 1445 1446 1446 1446 1446 1446 1446 1446 1446 1447 1448 1447 1449 1450 1451 1453 1451 1451 1451 1451 1453 1454 1453 1452 1451 1450 1448 1446 1444 1442 1440 1437 1435 1432 1430 1427 1425 1423 1420
1442 1442 1440 1438 1436 1436 1436 1436 1435 1434 1435 1434 1435 1436 1437 1438 1440 1441 1443 1444 1445 1441 1439 1441 1444 1444 1444 1443 1442 1441 1438 1437 1435 1433 1430 1428 1425 1422 1420 1417 1414 1412 1409
1434 1433 1431 1429 1427 1426 1425 1425 1423 1423 1424 1423 1424 1425 1425 1427 1429 1432 1433 1434 1434 1433 1429 1430 1434 1435 1435 1434 1433 1431 1429 1427 1425 1423 1420 1417 1415 1412 1409 1406 1403 1400 1397
1423 1422 1421 1420 1418 1416 1415 1414 1412 1412 1412 1412 1413 1414 1414 1417 1419 1421 1423 1424 1425 1424 1421 1420 1424 1425 1425 1423 1422 1421 1419 1416 1414 1412 1409 1407 1404 1401 1398 1395 1391 1388 1385
1414 1413 1411 1409 1407 1406 1405 1403 1401 1401 1400 1400 1401 1402 1403 1406 1408 1410 1412 1413 1414 1415 1414 1412 1413 1415 1414 1414 1412 1410 1408 1406 1404 1401 1399 1396 1393 1390 1386 1383 1379 1375 1372
1406 1403 1401 1399 1397 1395 1394 1392 1390 1389 1389 1388 1390 1390 1392 1395 1396 1399 1401 1403 1405 1406 1406 1404 1403 1405 1404 1404 1402 1400 1398 1396 1394 1391 1389 1386 1382 1378 1375 1371 1367 1362 1358
1397 1394 1391 1389 1387 1385 1383 1382 1380 1379 1378 1378 1379 1380 1381 1383 1385 1389 1391 1393 1396 1397 1397 1396 1395 1395 1394 1393 1393 1390 1388 1386 1383 1381 1378 1375 1371 1367 1362 1358 1354 1349 1345
1388 1385 1382 1379 1377 1375 1373 1371 1370 1369 1368 1367 1368 1369 1370 1373 1376 1379 1382 1384 1386 1387 1388 1387 1386 1386 1384 1384 1383 1382 1379 1376 1372 1370 1366 1362 1358 1352 1348 1343 1339 1334 1330
1379 1376 1372 1369 1366 1364 1363 1361 1359 1357 1356 1356 1357 1358 1360 1364 1366 1369 1372 1374 1376 1377 1377 1378 1377 1376 1374 1375 1375 1373 1371 1367 1360 1359 1356 1349 1347 1340 1335 1330 1325 1321 1317
1370 1366 1363 1360 1356 1354 1353 1351 1350 1348 1345 1345 1346 1347 1349 1351 1356 1359 1362 1365 1367 1368 1369 1369 1368 1366 1366 1366 1367 1364 1361 1357 1351 1349 1347 1336 1334 1328 1323 1318 1313 1309 1304
1361 1357 1353 1350 1347 1344 1343 1341 1340 1339 1336 1334 1335 1336 1339 1341 1345 1348 1352 1354 1356 1358 1360 1361 1360 1359 1359 1359 1358 1356 1352 1347 1342 1339 1338 1329 1322 1317 1310 1305 1301 1297 1292
1352 1348 1344 1341 1338 1335 1334 1332 1331 1328 1326 1325 1326 1327 1329 1331 1335 1340 1343 1344 1346 1348 1350 1351 1351 1351 1351 1350 1350 1348 1344 1340 1333 1328 1328 1322 1313 1306 1298 1292 1288 1285 1281
1344 1340 1336 1333 1329 1326 1325 1323 1322 1319 1317 1316 1317 1318 1320 1322 1326 1330 1333 1335 1336 1338 1341 1342 1343 1342 1342 1341 1341 1340 1337 1332 1326 1318 1315 1313 1306 1300 1287 1279 1276 1273 1269